Weather History for Erie, PA

Change the Weather History Date:

Wednesday, July 3, 2013

  Actual Average Record
Temperature  
Mean Temperature 78 °F 71 °F  
Max Temperature 87 °F 79 °F 93 °F (1934)
Min Temperature 68 °F 63 °F 49 °F (1971)
Degree Days  
Heating Degree Days 0 0  
Month to date heating degree days 0 2  
Since 1 June heating degree days 68 63  
Since 1 July heating degree days 0 2  
Cooling Degree Days 13 7  
Month to date cooling degree days 17 19  
Year to date cooling degree days 220 181  
Since 1 June cooling degree days 135 142  
Growing Degree Days 28 (Base 50)    
Moisture  
Dew Point 68 °F    
Average Humidity 75    
Maximum Humidity 90    
Minimum Humidity 59    
Precipitation  
Precipitation 0.26 in 0.11 in 1.48 in (1970)
Month to date precipitation 0.45 0.34  
Year to date precipitation 24.96 19.16  
Snow  
Snow 0.00 in 0.00 in - ()
Month to date snowfall 0.0 0.0  
Since 1 June snowfall 0.0 0.0  
Since 1 July snowfall 0.0 0.0  
Snow Depth 0.00 in    
Sea Level Pressure  
Sea Level Pressure 30.10 in    
Wind  
Wind Speed 5 mph (SSE)    
Max Wind Speed 17 mph    
Max Gust Speed 25 mph    
Visibility 9 miles    
Events Rain    
T = Trace of Precipitation, MM = Missing Value Source: NWS Daily Summary

Daily Weather History Graph

Daily Weather History Graph

Search for Another Location

Airport:

Trip Planner

Search our weather history database for the weather conditions in past years. The results will help you decide how hot, cold, wet, or windy it might be!

Date:

Astronomy

Jul. 03, 2013 Rise Set
Actual Time 5:49 AM EDT 8:59 PM EDT
Civil Twilight 5:15 AM EDT 9:34 PM EDT
Nautical Twilight 4:31 AM EDT 10:18 PM EDT
Astronomical Twilight 3:38 AM EDT 11:10 PM EDT
Moon 2:29 AM EDT (7/3) 5:07 PM EDT (7/3)
Length of Visible Light 16h 18m
Length of Day
15h 10m
Waning Crescent, 18% of the Moon is Illuminated
Jul 3
Waning Crescent
Jul 8
New
Jul 15
First Quarter
Jul 22
Full
Jul 29
Last Quarter

Hourly Weather History & Observations

Time (EDT) Temp. Heat Index Dew Point Humidity Pressure Visibility Wind Dir Wind Speed Gust Speed Precip Events Conditions
12:51 AM 69.1 °F - 64.0 °F 84% 30.06 in 9.0 mi Calm Calm - N/A   Clear
1:51 AM 69.1 °F - 64.0 °F 84% 30.06 in 9.0 mi Calm Calm - N/A   Clear
2:51 AM 70.0 °F - 66.0 °F 87% 30.05 in 9.0 mi Calm Calm - N/A   Clear
3:51 AM 70.0 °F - 66.0 °F 87% 30.06 in 9.0 mi South 3.5 mph - N/A   Clear
4:51 AM 70.0 °F - 66.0 °F 87% 30.06 in 9.0 mi Calm Calm - N/A   Partly Cloudy
5:51 AM 70.0 °F - 66.9 °F 90% 30.08 in 10.0 mi South 5.8 mph - N/A   Mostly Cloudy
6:51 AM 71.1 °F - 66.9 °F 87% 30.09 in 10.0 mi Calm Calm - N/A   Mostly Cloudy
7:51 AM 73.0 °F - 68.0 °F 84% 30.12 in 10.0 mi South 8.1 mph - N/A   Mostly Cloudy
8:51 AM 75.0 °F - 68.0 °F 79% 30.13 in 10.0 mi South 6.9 mph - N/A   Overcast
9:51 AM 80.1 °F 82.9 °F 69.1 °F 69% 30.13 in 10.0 mi SSW 6.9 mph - N/A   Mostly Cloudy
10:51 AM 82.0 °F 85.5 °F 69.1 °F 65% 30.12 in 9.0 mi South 5.8 mph - N/A   Clear
11:51 AM 79.0 °F - 69.1 °F 72% 30.12 in 10.0 mi Variable 3.5 mph - N/A   Scattered Clouds
12:51 PM 84.9 °F 88.2 °F 68.0 °F 57% 30.11 in 10.0 mi South 12.7 mph 16.1 mph N/A   Scattered Clouds
1:51 PM 84.9 °F 88.8 °F 69.1 °F 59% 30.11 in 10.0 mi Variable 5.8 mph - N/A   Scattered Clouds
2:51 PM 81.0 °F 84.4 °F 70.0 °F 69% 30.10 in 10.0 mi North 9.2 mph - N/A   Scattered Clouds
3:51 PM 78.1 °F - 69.1 °F 74% 30.12 in 10.0 mi North 5.8 mph - N/A   Mostly Cloudy
4:51 PM 82.0 °F 85.9 °F 70.0 °F 67% 30.10 in 10.0 mi NE 5.8 mph - N/A   Clear
5:51 PM 80.1 °F 82.9 °F 69.1 °F 69% 30.09 in 10.0 mi NNE 5.8 mph - N/A   Clear
6:51 PM 80.1 °F 82.7 °F 68.0 °F 67% 30.09 in 10.0 mi NNE 3.5 mph - N/A   Scattered Clouds
7:51 PM 75.0 °F - 70.0 °F 84% 30.11 in 10.0 mi Calm Calm - 0.02 in Rain Light Rain
8:51 PM 75.0 °F - 71.1 °F 87% 30.11 in 7.0 mi East 4.6 mph - 0.00 in   Clear
9:51 PM 75.0 °F - 69.1 °F 82% 30.13 in 7.0 mi West 6.9 mph - 0.01 in Rain Light Rain
10:51 PM 72.0 °F - 66.0 °F 81% 30.15 in 10.0 mi Calm Calm - 0.15 in Rain Light Rain
11:14 PM 71.6 °F - 66.2 °F 83% 30.15 in 2.5 mi SE 3.5 mph - 0.08 in Rain Light Rain
11:21 PM 71.6 °F - 66.2 °F 83% 30.15 in 10.0 mi Calm Calm - 0.08 in Rain Light Rain
11:51 PM 70.0 °F - 66.9 °F 90% 30.13 in 10.0 mi South 4.6 mph - 0.08 in   Partly Cloudy